Temperature
4 4 4 4 4 3 3 3 3 3 3 4 4 4 4 4 4 4 4 4 4 4 4 4 4 4 4 4 4 4 4 3 3 3 3 3 3 3
3 3 3 3 3 3 3 3 3 2 2 3 3 3 3 3 3 3 3 3 3 3 3 3 3 3 3 3 3 3 3 3 3 3 3 3 3 3
2 2 3 3 3 2 2 2 2 2 2 2 2 2 2 2 2 3 3 3 3 3 3 3 3 3 3 3 3 2 2 2 2 2 2 2 2 2
2 2 2 2 2 2 2 2 2 1 1 1 1 1 2 2 2 2 2 2 2 2 2 2 2 2 2 2 2 2 2 2 2 2 2 2 2 2
1 1 1 1 1 1 1 1 1 1 1 1 1 1 1 1 1 1 1 1 1 2 2 2 2 2 2 2 2 2 1 1 1 1 1 1 1 1
1 1 1 1 1 1 1 1 1 1 1 1 1 0 0 0 0 0 1 1 1 1 1 1 1 1 1 1 1 1 1 1 1 1 1 1 1 1
0 0 0 0 0 0 0 0 0 0 0 0 -0 -0 -0 -0 -0 -0 -0 0 0 0 1 1 1 1 1 1 1 1 1 1 0 1 1 1 1 1
-1 -0 -0 -0 -0 -0 -0 -0 -0 -0 -0 -0 -0 -0 -0 -0 -0 -1 -1 -1 -0 -0 0 0 0 0 0 0 0 0 0 0 0 0 0 0 -0 0
-1 -1 -1 -1 -1 -1 -1 -1 -1 -1 -1 -1 -1 -1 -1 -1 -1 -1 -1 -1 -1 -1 -1 -0 -0 -0 -0 -0 -0 -0 -0 -0 -0 -0 -0 -0 -0 -0
-1 -1 -1 -1 -1 -1 -1 -1 -1 -1 -1 -1 -1 -1 -1 -1 -1 -1 -1 -1 -1 -1 -1 -1 -1 -1 -1 -1 -1 -1 -1 -1 -1 -0 -0 -0 -1 -1
-2 -2 -2 -2 -2 -2 -2 -1 -1 -1 -1 -1 -1 -1 -1 -1 -2 -2 -1 -2 -2 -2 -2 -2 -2 -1 -1 -1 -1 -1 -1 -1 -1 -1 -1 -1 -1 -1
-3 -2 -2 -2 -2 -2 -2 -2 -2 -2 -2 -2 -2 -2 -2 -2 -2 -2 -2 -2 -2 -2 -2 -2 -2 -2 -2 -2 -2 -2 -2 -2 -1 -1 -1 -1 -1 -1
-3 -3 -3 -3 -3 -3 -3 -3 -2 -2 -2 -2 -2 -2 -2 -2 -2 -2 -2 -3 -3 -3 -3 -3 -3 -3 -3 -3 -2 -2 -2 -2 -2 -2 -2 -2 -2 -2
-3 -3 -3 -3 -3 -3 -3 -3 -3 -3 -3 -3 -3 -3 -3 -3 -3 -3 -3 -3 -3 -3 -3 -3 -3 -3 -3 -3 -3 -3 -2 -2 -2 -2 -2 -2 -2 -2
-4 -4 -4 -4 -4 -4 -4 -4 -4 -4 -4 -4 -4 -3 -3 -3 -3 -3 -3 -3 -3 -3 -3 -3 -3 -3 -3 -3 -3 -3 -3 -3 -3 -3 -3 -3 -3 -3
-4 -4 -4 -4 -4 -4 -4 -4 -4 -4 -4 -4 -4 -4 -4 -4 -3 -3 -3 -3 -3 -3 -3 -3 -3 -4 -4 -4 -4 -4 -3 -3 -3 -3 -3 -3 -3 -3
-4 -4 -4 -4 -5 -5 -5 -5 -5 -5 -5 -4 -4 -4 -4 -4 -4 -4 -4 -4 -4 -4 -4 -4 -4 -4 -4 -4 -4 -4 -4 -4 -4 -4 -4 -3 -3 -3
-4 -5 -5 -5 -5 -5 -5 -5 -5 -5 -5 -5 -5 -5 -4 -4 -4 -4 -4 -4 -4 -4 -4 -4 -4 -4 -4 -4 -4 -4 -4 -4 -4 -4 -4 -4 -3 -3
-5 -5 -5 -5 -5 -5 -5 -5 -5 -5 -5 -5 -5 -5 -5 -5 -5 -5 -5 -5 -5 -4 -5 -5 -5 -5 -5 -5 -4 -4 -4 -4 -4 -4 -4 -4 -4 -4
-5 -5 -5 -6 -6 -6 -6 -6 -6 -6 -6 -6 -6 -6 -6 -5 -5 -5 -5 -5 -5 -5 -5 -5 -5 -5 -5 -5 -5 -4 -4 -4 -4 -4 -4 -4 -4 -4
-6 -6 -6 -6 -6 -6 -6 -6 -6 -6 -6 -6 -6 -6 -6 -6 -6 -6 -5 -5 -5 -5 -5 -5 -5 -5 -5 -5 -5 -5 -4 -4 -4 -4 -4 -4 -4 -4
-6 -6 -6 -6 -6 -6 -6 -6 -6 -6 -6 -6 -6 -6 -6 -6 -6 -6 -6 -6 -5 -5 -5 -5 -5 -5 -5 -5 -5 -5 -4 -4 -4 -4 -4 -4 -4 -5
-6 -6 -6 -6 -6 -6 -6 -6 -6 -7 -6 -6 -6 -6 -6 -6 -6 -6 -6 -6 -6 -5 -6 -6 -5 -5 -5 -5 -5 -5 -5 -4 -4 -4 -4 -4 -4 -4
Wind_Speed
6 7 6 5 5 5 5 5 4 5 6 5 4 4 5 6 7 8 8 8 10 11 11 12 12 12 12 12 13 13 13 14 14 14 15 15 16 16
5 6 6 5 5 5 5 5 5 6 6 5 5 5 5 6 7 8 8 9 10 11 11 12 12 12 12 12 13 13 13 13 13 14 14 15 15 16
6 6 6 6 5 5 5 6 6 6 7 7 6 5 6 6 6 6 7 8 8 10 11 12 12 12 12 12 12 13 13 13 13 13 14 14 14 15
6 6 6 5 6 6 6 6 6 6 7 8 7 6 7 6 6 6 6 7 8 8 10 11 11 11 11 11 11 11 11 12 13 13 14 14 15 15
6 6 6 6 6 5 6 6 6 6 6 6 7 6 6 5 6 7 7 6 7 8 9 10 10 11 11 11 10 11 11 12 12 13 13 14 14 15
5 6 6 7 7 6 6 6 6 6 6 6 6 5 5 5 5 6 6 6 6 6 7 8 9 10 11 11 10 10 11 12 12 12 13 13 14 14
5 5 6 6 7 7 6 6 6 5 5 5 5 5 5 5 5 5 6 6 7 5 6 6 6 6 7 8 9 9 10 11 11 12 13 13 13 13
5 5 5 5 6 7 8 8 7 6 6 6 6 7 8 7 5 5 5 6 6 4 5 6 5 6 6 6 7 8 10 11 12 12 13 13 13 13
5 4 3 4 5 4 5 6 6 7 8 8 8 8 7 7 6 7 7 7 7 5 5 6 5 6 5 6 8 8 9 10 11 11 12 13 13 12
4 4 4 4 4 4 4 4 4 4 5 6 6 7 6 6 6 7 7 6 6 5 5 6 6 6 5 5 7 8 9 10 10 11 12 12 12 12
3 3 4 4 4 4 3 3 4 4 4 5 7 7 6 7 6 4 4 4 5 5 4 5 5 5 6 6 5 7 8 9 10 11 11 11 12 12
3 3 3 4 4 4 3 3 3 4 4 4 4 4 4 4 5 5 5 5 5 4 3 4 4 4 4 4 4 5 6 7 9 10 11 11 11 8
2 2 2 3 3 4 3 3 4 4 3 3 3 3 3 3 3 3 3 4 5 5 3 3 4 4 4 4 4 5 5 5 6 7 8 9 10 8
2 2 2 2 3 3 2 2 3 3 2 2 2 2 2 3 3 3 3 4 4 5 5 5 4 4 5 5 5 5 5 5 5 6 6 7 8 8
2 2 2 2 2 2 2 2 2 2 2 2 2 3 3 3 3 2 3 3 4 4 5 5 5 5 5 5 5 6 6 5 5 5 5 5 5 6
2 1 1 2 2 2 2 2 2 2 2 2 2 3 2 2 3 2 3 3 3 3 3 4 5 5 5 6 6 6 6 4 4 5 5 5 5 5
2 1 1 1 1 2 2 2 2 2 2 2 2 2 2 2 3 3 3 3 3 4 4 3 3 4 5 5 5 6 6 5 5 5 5 6 5 5
1 1 1 1 2 2 2 2 2 2 2 2 2 2 2 2 3 3 3 3 3 3 3 4 3 3 3 3 4 5 5 5 5 5 5 5 5 5
1 1 1 2 2 2 2 2 2 3 3 2 2 2 2 2 2 2 2 3 3 3 3 3 3 3 4 4 2 2 4 5 5 5 4 4 5 5
1 1 1 2 2 2 2 2 2 2 2 2 2 2 2 2 2 2 2 3 3 3 3 3 3 3 4 4 4 5 5 5 5 5 5 5 5 6
1 1 1 2 2 2 2 2 2 2 3 2 2 2 2 2 2 2 2 3 3 3 3 3 4 5 4 3 3 4 4 4 5 5 5 5 5 4
2 2 2 2 2 2 2 2 2 2 2 2 2 2 2 2 2 3 3 3 3 3 3 3 4 3 3 3 4 5 5 5 5 5 5 5 3 3
2 2 2 2 2 2 2 2 2 2 3 2 2 2 2 2 2 2 2 2 3 3 3 3 3 3 3 3 4 4 6 6 5 5 4 5 5 7
Wind_Direction
239 237 239 238 235 233 234 236 248 264 266 259 258 254 262 264 268 266 269 272 275 277 277 279 280 281 285 289 291 293 295 297 299 300 302 303 304 306
241 242 242 241 238 235 234 238 240 253 265 269 273 280 273 271 272 271 272 276 270 272 275 278 278 279 281 284 287 289 293 296 298 301 302 304 305 307
243 244 247 245 240 234 234 234 237 243 257 272 277 280 277 272 270 272 275 276 276 271 275 277 278 278 278 280 283 287 292 295 298 300 302 304 305 308
244 246 249 248 245 237 235 238 242 244 251 264 273 274 274 272 271 272 275 279 279 276 275 277 277 278 277 278 281 286 291 294 296 297 298 301 303 305
244 246 250 248 248 247 242 244 248 249 251 256 267 272 274 271 272 273 275 277 280 279 278 274 274 277 277 277 280 283 288 293 296 298 298 299 302 303
252 253 252 249 249 251 248 248 250 250 250 253 263 270 272 273 271 273 278 276 278 277 278 277 276 274 272 275 278 282 286 289 292 295 297 298 299 302
257 259 259 261 262 260 255 250 247 247 250 254 260 265 263 264 263 270 274 281 280 272 280 278 278 275 275 272 273 281 284 286 290 295 297 297 299 300
259 265 265 264 267 267 263 259 254 249 249 252 256 256 259 263 264 262 269 277 277 274 281 281 276 274 276 277 286 285 288 290 292 294 295 296 298 299
259 263 268 271 273 271 268 267 264 263 259 256 255 258 263 262 259 261 261 269 272 281 284 278 276 275 277 280 286 287 289 293 296 296 296 297 297 298
261 263 265 273 273 276 273 275 276 276 271 264 261 266 272 272 266 266 269 275 278 278 274 275 281 281 286 281 283 285 290 293 295 297 300 302 302 300
274 275 274 273 276 281 272 271 278 286 285 273 275 274 276 272 268 267 261 266 274 277 270 270 283 291 288 281 286 288 291 294 297 302 302 301 303 301
279 280 277 278 286 290 271 261 269 283 291 292 287 282 277 273 269 261 261 265 276 278 273 274 281 294 286 276 286 298 294 294 297 301 303 304 305 303
278 284 288 295 297 300 286 270 275 291 291 290 290 296 298 290 285 282 275 268 266 269 278 281 280 281 277 286 293 298 298 303 307 304 302 305 305 301
282 290 301 316 310 302 292 297 308 313 302 295 289 290 293 290 288 289 286 284 281 275 277 277 274 278 282 287 291 298 300 305 307 307 309 309 305 300
293 309 318 323 324 317 320 314 307 301 300 295 290 290 293 294 295 296 296 294 294 289 279 272 269 273 276 281 288 297 301 303 304 303 309 311 308 306
298 314 338 352 337 337 331 312 301 300 298 291 296 300 301 301 298 297 298 300 295 295 290 282 276 271 272 277 281 289 295 296 304 307 306 305 304 300
288 289 313 342 338 339 337 328 318 314 308 305 300 307 309 308 307 308 309 303 292 296 307 307 291 278 275 279 282 286 292 295 298 306 304 303 305 307
292 300 299 306 307 310 316 322 321 315 312 308 305 304 305 307 311 315 313 309 304 305 307 309 302 289 281 271 261 284 295 301 307 307 301 301 308 315
291 286 293 293 292 293 301 308 310 311 310 302 305 305 304 306 310 314 318 317 315 316 314 310 306 296 298 304 296 277 297 305 307 306 303 299 301 310
343 317 305 302 298 298 298 303 304 306 306 304 305 304 302 304 309 309 311 314 312 315 318 319 319 312 300 299 300 302 297 294 300 305 308 305 299 298
339 324 311 305 302 303 303 299 298 298 303 303 305 307 304 302 303 305 308 312 310 309 312 317 319 312 300 294 292 302 315 309 298 296 305 305 307 312
317 310 308 305 299 296 295 298 300 302 304 302 304 306 305 299 297 298 304 307 308 311 314 321 326 321 314 308 311 316 322 328 325 310 296 285 293 308
311 308 305 301 298 295 292 294 296 299 304 306 308 309 306 306 308 303 302 302 308 313 323 327 329 327 321 315 315 319 324 328 331 334 335 326 295 284
Height
1477 1478 1479 1479 1480 1481 1482 1482 1483 1482 1481 1480 1480 1479 1479 1478 1477 1476 1475 1474 1473 1472 1471 1470 1469 1468 1467 1465 1464 1462 1461 1459 1458 1456 1454 1452 1450 1448
1472 1473 1474 1475 1475 1476 1477 1477 1478 1478 1477 1475 1475 1475 1474 1473 1472 1471 1470 1469 1468 1467 1466 1465 1464 1463 1461 1460 1459 1458 1456 1454 1452 1451 1449 1447 1445 1443
1468 1468 1469 1470 1470 1471 1472 1472 1473 1473 1472 1471 1471 1470 1470 1468 1467 1467 1466 1465 1463 1462 1461 1460 1458 1457 1456 1455 1454 1452 1451 1449 1447 1446 1444 1442 1441 1438
1463 1464 1464 1465 1466 1466 1467 1467 1468 1468 1467 1466 1466 1466 1465 1464 1463 1462 1461 1460 1459 1457 1456 1455 1453 1452 1451 1450 1448 1447 1446 1444 1442 1441 1439 1437 1435 1433
1458 1459 1459 1460 1461 1461 1462 1462 1463 1463 1462 1462 1461 1460 1460 1459 1458 1458 1457 1455 1454 1453 1451 1450 1448 1447 1446 1445 1443 1442 1440 1439 1437 1435 1434 1432 1430 1428
1454 1454 1455 1455 1456 1457 1457 1458 1458 1458 1458 1457 1456 1455 1455 1454 1454 1453 1451 1451 1449 1448 1446 1445 1444 1442 1441 1440 1438 1437 1435 1434 1432 1430 1428 1427 1425 1423
1449 1449 1450 1451 1451 1452 1452 1453 1453 1453 1453 1452 1451 1451 1450 1450 1449 1448 1447 1446 1445 1443 1441 1440 1439 1437 1436 1434 1433 1431 1430 1429 1427 1425 1423 1422 1420 1418
1445 1445 1445 1446 1446 1447 1447 1448 1448 1448 1448 1447 1447 1446 1446 1446 1445 1444 1443 1442 1440 1439 1437 1436 1435 1432 1431 1430 1428 1427 1425 1423 1422 1420 1419 1417 1415 1413
1441 1441 1441 1442 1442 1442 1442 1443 1443 1443 1443 1443 1442 1442 1442 1441 1441 1440 1439 1438 1436 1435 1433 1431 1430 1428 1427 1425 1424 1422 1420 1419 1417 1415 1414 1412 1410 1408
1438 1438 1438 1438 1438 1438 1438 1438 1438 1438 1438 1438 1437 1437 1437 1436 1436 1436 1434 1433 1432 1431 1430 1427 1425 1424 1423 1421 1419 1418 1416 1414 1413 1411 1409 1407 1405 1403
1434 1434 1434 1434 1434 1434 1434 1434 1433 1433 1433 1433 1433 1432 1431 1432 1432 1431 1430 1429 1427 1426 1426 1424 1422 1420 1418 1416 1415 1413 1412 1410 1408 1406 1404 1402 1401 1399
1431 1431 1431 1431 1430 1430 1430 1430 1429 1429 1429 1428 1428 1428 1427 1427 1427 1427 1426 1425 1424 1423 1422 1421 1419 1417 1414 1412 1411 1409 1408 1406 1404 1402 1400 1398 1396 1395
1428 1428 1428 1428 1427 1427 1427 1427 1426 1426 1426 1425 1424 1424 1423 1423 1423 1423 1422 1422 1421 1419 1419 1418 1416 1414 1413 1410 1408 1406 1404 1402 1400 1398 1396 1394 1392 1391
1426 1425 1425 1425 1424 1424 1424 1424 1424 1424 1423 1422 1421 1420 1420 1420 1420 1419 1419 1418 1417 1416 1415 1414 1413 1411 1410 1407 1405 1403 1401 1399 1397 1394 1392 1391 1389 1387
1424 1424 1423 1423 1422 1422 1422 1422 1422 1421 1420 1420 1419 1418 1418 1417 1417 1416 1415 1415 1413 1412 1411 1411 1410 1408 1407 1405 1402 1400 1398 1395 1394 1392 1390 1387 1386 1384
1422 1422 1422 1421 1421 1420 1420 1420 1419 1419 1418 1418 1417 1416 1416 1415 1414 1413 1412 1411 1410 1409 1408 1407 1406 1405 1403 1401 1399 1397 1395 1393 1391 1389 1387 1385 1383 1381
1421 1421 1420 1420 1419 1419 1418 1418 1417 1417 1416 1416 1415 1414 1413 1412 1412 1411 1410 1409 1408 1406 1405 1404 1403 1402 1400 1399 1396 1394 1392 1390 1389 1387 1385 1382 1380 1378
1420 1419 1419 1418 1418 1417 1416 1416 1415 1415 1414 1414 1413 1412 1411 1410 1409 1409 1408 1407 1406 1404 1403 1401 1400 1399 1397 1395 1395 1392 1390 1388 1386 1384 1382 1380 1377 1376
1418 1418 1417 1417 1416 1415 1414 1414 1413 1413 1412 1412 1411 1410 1409 1409 1408 1407 1406 1405 1404 1403 1401 1400 1398 1397 1395 1393 1392 1390 1388 1386 1384 1382 1380 1378 1376 1374
1416 1416 1416 1415 1414 1414 1413 1412 1412 1411 1410 1409 1409 1408 1407 1407 1406 1405 1404 1403 1402 1401 1399 1398 1397 1396 1395 1393 1390 1388 1387 1385 1383 1380 1378 1376 1374 1373
1415 1414 1414 1413 1413 1412 1411 1411 1410 1409 1408 1408 1407 1406 1405 1405 1404 1403 1403 1402 1401 1400 1398 1397 1396 1395 1393 1391 1389 1387 1385 1384 1382 1379 1377 1375 1373 1371
1413 1413 1412 1412 1411 1410 1410 1409 1409 1408 1407 1406 1405 1404 1404 1403 1403 1402 1401 1400 1400 1399 1397 1396 1394 1393 1392 1390 1388 1386 1384 1382 1380 1378 1376 1374 1372 1369
1412 1411 1411 1410 1409 1409 1408 1408 1407 1406 1406 1405 1404 1403 1403 1402 1401 1401 1400 1399 1399 1397 1396 1395 1393 1392 1391 1389 1387 1385 1383 1381 1379 1377 1375 1373 1371 1369